Felts Field Spokane US
ICAO: KSFF
IATA: SFF
Category: Medium
Scheduled Services: No

Elevation: 1953 ft
TransAlt. 18000 ft.

Airport Communications:
SPOKANE APP/DEP:133.35
ATIS:120.55
CTAF:132.5
GND:121.7
SEATTLE RDO:122.2
TWR:132.5
UNICOM:122.95

KSFF Zoom In..

Runways:

(A) RW 04L length 4499 ft width 150 ft
---- / hdg 38

(B) RW 04R length 2650 ft width 75 ft
---- / hdg 38

(C) RW 22L length 2650 ft width 75 ft
---- / hdg 218

(D) RW 22R length 4499 ft width 150 ft
ILS 111.70 / hdg 218

Location; KSFF
Day. 04 / Time. 03.53 Zulu
* Altimeter: 30.46
* Temperature: -01° c. -30.2°f.
* Wind from: 000° Speed 00 kn.
Dewpoint: -03° c.
Visibility: 8 Statute Miles.
Clouds: Clear (automated report).

KSFF 040353Z 00000KT 8SM CLR M01/M03 A3046 RMK AO2 SLP336 T10111028

Going to: --> -->


Wind - Calm.

 
 
jpsmedia worldairports.se 2020   terms of use